Regional Weather Roundup
Issued by NWS

Home | Current Version | Previous Version | Graphics & Text | Print | Product List | Glossary On
Versions: 1 2 3 4 5 6 7 8 9 10 11 12 13 14 15 16 17 18 19 20 21 22 23 24 25 26 27 28 29 30 31 32 33 34 35 36 37 38 39 40 41 42 43 44 45 46 47 48 49 50
053
ASUS45 KCYS 300710
RWRWY

WYOMING REGIONAL WEATHER ROUNDUP
NATIONAL WEATHER SERVICE CHEYENNE WY
100 AM MDT SAT APR 30 2016

NOTE:  "FAIR" INDICATES FEW OR NO CLOUDS BELOW 12,000 FEET
WITH NO SIGNIFICANT WEATHER AND/OR OBSTRUCTIONS TO VISIBILITY.

WYZ001-300800-
YELLOWSTONE NATIONAL PARK

CITY           SKY/WX    TMP DP  RH WIND       PRES   REMARKS
LK YELLOWSTONE   N/A     31  23  72 CALM      29.99R
W YELLOWSTONE  NOT AVBL

$$
WYZ002>013-054>058-071-098>099-300800-
NORTHERN WYOMING

CITY           SKY/WX    TMP DP  RH WIND       PRES   REMARKS
JACKSON        MOCLDY    34  34 100 N7        29.93S WCI  28
CODY           CLOUDY    37  32  81 CALM      29.99S
GREYBULL       CLOUDY    46  35  65 NW6       29.98R
WORLAND        CLOUDY    42  38  85 SW3       29.98R
SHERIDAN       CLOUDY    41  36  82 CALM      30.04R
BUFFALO          N/A    N/A N/A N/A MISG      30.03S
GILLETTE       CLOUDY    38  37  97 N3        30.02S
HULETT         CLOUDY    37  34  87 NE7       30.05R WCI  32
NEWCASTLE      CLOUDY    37  30  75 NE5       30.02S WCI  34

$$
WYZ014>020-022>026-101>103-300800-
CENTRAL WYOMING

CITY           SKY/WX    TMP DP  RH WIND       PRES   REMARKS
BIG PINEY      CLOUDY    34  28  79 S8        29.94S WCI  27
PINEDALE       PTSUNNY   32  32 100 CALM      29.95S
DUBOIS         LGT SNOW  30  28  93 SE5       29.96S WCI  25
LANDER         LGT SNOW  33  32  96 W6        29.97S FOG     WCI  28
RIVERTON       LGT RAIN  34  32  92 NW9       29.98F WCI  27
CASPER         LGT SNOW  32  30  92 E8        29.97R VSB 1   WCI  25
DOUGLAS        LGT SNOW  33  32  96 N3        29.98S FOG

$$
WYZ021-027>030-104>119-300800-
SOUTHERN WYOMING

CITY           SKY/WX    TMP DP  RH WIND       PRES   REMARKS
EVANSTON       FAIR      33  26  75 NE7       29.90S WCI  27
KEMMERER         N/A     32  28  86 E6        29.94R WCI  26
FORT BRIDGER   CLOUDY    32  32 100 E3        29.95R
ROCK SPRINGS   CLOUDY    33  30  88 NE8       29.93R WCI  26
DIXON          CLOUDY    35  32  87 W3        29.87S
RAWLINS        CLOUDY    31  28  89 NE10      29.91R FOG     WCI  22
SARATOGA       LGT SNOW  32  32 100 CALM      29.89R
LARAMIE        LGT SNOW  27  26  96 N7        29.88S FOG     WCI  19
CHEYENNE       LGT SNOW  30  28  92 N12       29.88S FOG     WCI  20
TORRINGTON     LGT SNOW  33  32  96 N3        29.93S FOG
PINE BLUFFS    MIX PCPN  32  32 100 N10       29.90S WCI  24

$$




USA.gov is the U.S. government's official web portal to all federal, state and local government web resources and services.